Home   Weather   Kryvyi Rih   Past weeks

Flag for Ukraine Past Weather in Kryvyi Rih, Ukraine — Yesterday and Last 2 Weeks

Now
75 °F

Passing clouds.


Feels Like: 77 °F
Forecast: 49 / 72 °F
Wind: 10 mph from Southwest

Location: Krivyy Rih / Dnipropetrovs'k

Current Time: Oct 1, 2016 at 3:15:44 PM

Latest Report: Oct 1, 2016 at 2:30 PM


Visibility: N/A

Pressure: 30.12 "Hg

Humidity: 36%

Dew Point: 46 °F

Location of Kryvyi RihLocation

Past Weather in Kryvyi Rih — Graph

°F

Kryvyi Rih Temperature Yesterday

Maximum temperature yesterday: 72 °F (at 3:00 PM)
Minimum temperature yesterday: 46 °F (at 6:00 AM)
Average temperature yesterday: 58 °F

High & Low Weather Summary for the Past Weeks

 TemperatureHumidityPressure
High77 °F (Sep 16, 3:00 PM)100% (Sep 30, 4:00 AM)30.24 "Hg (Sep 30, 4:00 AM)
Low37 °F (Sep 23, 7:00 AM)22% (Sep 16, 4:00 PM)29.62 "Hg (Sep 20, 12:00 PM)
Average54 °F64%30.01 "Hg
* Reported Sep 16 2:00 PM — Oct 1 2:00 PM, Kryvyi Rih, Weather by CustomWeather, © 2016

Note: Actual official high and low records may vary slightly from our data, if they occured in-between our weather recording intervals... More about our weather records

Advertising

Kryvyi Rih Weather History for the Previous 24 Hours

Scroll right to see more
 ConditionsComfort  
Time TempWeatherWind HumidityBarometerVisibility
2:00 PM
Sat, Oct 1
75 °FPassing clouds.13 mph36%30.12 "HgN/A
1:30 PM73 °FPassing clouds.10 mph36%30.12 "HgN/A
1:00 PM73 °FPassing clouds.13 mph36%30.15 "HgN/A
12:30 PM70 °FPassing clouds.13 mph46%30.15 "HgN/A
12:00 PM70 °FPassing clouds.13 mph46%30.15 "HgN/A
11:30 AM68 °FSunny.13 mph60%30.15 "Hg10 mi
11:00 AM68 °FPassing clouds.13 mph60%30.15 "HgN/A
10:30 AM64 °FPassing clouds.10 mph78%30.15 "HgN/A
10:00 AM64 °FSunny.10 mph78%30.15 "Hg10 mi
9:30 AM57 °FPassing clouds.10 mph94%30.15 "HgN/A
9:00 AM57 °FSunny.8 mph94%30.15 "Hg10 mi
8:30 AM55 °FFog.8 mph100%30.15 "Hg1 mi
8:00 AM54 °FFog.10 mph100%30.15 "Hg0 mi
7:30 AM54 °FFog.10 mph100%30.15 "Hg0 mi
7:00 AM54 °FFog.6 mph100%30.15 "Hg0 mi
6:30 AM52 °FFog.8 mph100%30.15 "Hg1 mi
6:00 AM52 °FFog.8 mph100%30.15 "Hg3 mi
5:30 AM50 °FClear.8 mph100%30.12 "Hg10 mi
5:00 AM50 °FClear.8 mph100%30.15 "Hg10 mi
4:30 AM52 °FClear.8 mph94%30.15 "Hg10 mi
4:00 AM52 °FClear.6 mph94%30.15 "Hg10 mi
3:30 AM54 °FClear.6 mph88%30.15 "Hg10 mi
3:00 AM54 °FClear.6 mph88%30.15 "Hg10 mi
2:30 AM54 °FClear.3 mph88%30.15 "Hg10 mi
2:00 AM54 °FClear.No wind88%30.15 "Hg10 mi
1:30 AM55 °FClear.No wind77%30.15 "Hg10 mi
1:00 AM55 °FClear.3 mph77%30.15 "Hg10 mi
12:30 AM55 °FClear.6 mph77%30.15 "Hg10 mi
12:00 AM55 °FClear.8 mph77%30.12 "Hg10 mi
11:30 PM
Fri, Sep 30
59 °FClear.6 mph68%30.12 "Hg10 mi
11:00 PM59 °FClear.6 mph68%30.12 "Hg10 mi
10:30 PM59 °FClear.8 mph68%30.12 "Hg10 mi
10:00 PM59 °FClear.8 mph68%30.12 "Hg10 mi
9:30 PM59 °FClear.8 mph68%30.12 "Hg10 mi
9:00 PM59 °FClear.8 mph68%30.12 "Hg10 mi
8:30 PM61 °FClear.8 mph55%30.12 "Hg10 mi
8:00 PM61 °FClear.6 mph55%30.12 "Hg10 mi
7:30 PM63 °FClear.6 mph56%30.12 "Hg10 mi
7:00 PM63 °FClear.6 mph56%30.12 "Hg10 mi
6:30 PM70 °FClear.6 mph53%30.12 "Hg10 mi
6:00 PM70 °FSunny.6 mph53%30.12 "Hg10 mi
5:30 PM72 °FPassing clouds.8 mph41%30.12 "HgN/A
5:00 PM72 °FPassing clouds.8 mph41%30.12 "HgN/A
4:30 PM70 °FPassing clouds.6 mph43%30.12 "HgN/A
4:00 PM70 °FPassing clouds.6 mph43%30.12 "HgN/A
3:30 PM72 °FPassing clouds.8 mph44%30.12 "HgN/A
3:00 PM72 °FPassing clouds.3 mph44%30.12 "HgN/A
Weather by CustomWeather, © 2016

See weather overviewHow to use our weather pages